CW1334 Weather Reports


Display with metric or nautical units.
time (UTC)temp
F
wind
direction
speed
MPH
gust
MPH
rain 1hr
in
rain 24hr
in
rain mn
in
humidity
%
barometer
mb
20260902154556 69 222 2.0 12.0 0.00 0.00 0.00 51 1006.4
20260902153059 68 231 1.0 8.0 0.00 0.00 0.00 51 1006.5
20260902151601 66 180 1.0 5.0 0.00 0.00 0.00 53 1006.7
20260902144557 60 0 0.0 2.0 0.00 0.00 0.00 61 1007.1
20260902143059 58 0 0.0 1.0 0.00 0.00 0.00 63 1007.2
20260902141609 58 199 1.0 2.0 0.00 0.00 0.00 63 1007.4
20260902140058 57 0 0.0 2.0 0.00 0.00 0.00 64 1007.5
20260902134608 56 0 0.0 2.0 0.00 0.00 0.00 65 1007.2
20260902133101 56 0 0.0 3.0 0.00 0.00 0.00 67 1007.2
20260902131600 54 160 1.0 4.0 0.00 0.00 0.00 67 1007.1
20260902130059 54 144 2.0 5.0 0.00 0.00 0.00 70 1007.2
20260902124613 53 0 0.0 3.0 0.00 0.00 0.00 68 1007.0
20260902123115 53 336 3.0 6.0 0.00 0.00 0.00 68 1006.8
20260902121603 53 54 2.0 6.0 0.00 0.00 0.00 69 1006.6
20260902120100 54 336 5.0 9.0 0.00 0.00 0.00 67 1006.8
20260902114604 55 5 2.0 7.0 0.00 0.00 0.00 65 1007.2
20260902113100 55 279 4.0 7.0 0.00 0.00 0.00 66 1007.3
20260902111601 54 282 2.0 8.0 0.00 0.00 0.00 68 1007.5
20260902110055 54 262 4.0 10.0 0.00 0.00 0.00 71 1007.7
20260902104601 53 209 5.0 12.0 0.00 0.00 0.00 72 1007.6
20260902103107 55 194 1.0 6.0 0.00 0.00 0.00 64 1007.5
20260902101558 55 157 1.0 3.0 0.00 0.00 0.00 64 1007.3
20260902100114 55 0 0.0 3.0 0.00 0.00 0.00 63 1007.1
20260902094558 55 142 1.0 5.0 0.00 0.00 0.00 64 1007.1
20260902093055 54 0 0.0 3.0 0.00 0.00 0.00 62 1007.0
20260902091609 56 0 1.0 4.0 0.00 0.00 0.00 59 1007.1
20260902084554 60 129 2.0 3.0 0.00 0.00 0.00 55 1007.5
20260902083056 60 0 1.0 4.0 0.00 0.00 0.00 55 1007.6
20260902081601 60 192 1.0 5.0 0.00 0.00 0.00 53 1007.4
20260902080113 61 142 3.0 8.0 0.00 0.00 0.00 51 1007.5
20260902074604 62 153 5.0 10.0 0.00 0.00 0.00 49 1007.7
20260902073107 63 126 5.0 9.0 0.00 0.00 0.00 48 1007.4
20260902071628 63 167 1.0 5.0 0.00 0.00 0.00 49 1007.3
20260902070105 63 194 2.0 3.0 0.00 0.00 0.00 49 1007.4
20260902064600 64 136 4.0 8.0 0.00 0.00 0.00 48 1007.5
20260902063103 64 192 0.0 5.0 0.00 0.00 0.00 48 1007.5
20260902061611 64 141 4.0 6.0 0.00 0.00 0.00 47 1007.6
20260902054557 66 139 6.0 12.0 0.00 0.00 0.00 45 1007.9
20260902053056 66 121 7.0 12.0 0.00 0.00 0.00 44 1007.9
20260902051602 67 126 7.0 15.0 0.00 0.00 0.00 43 1007.8
20260902050109 68 102 7.0 13.0 0.00 0.00 0.00 42 1007.7
20260902044558 67 138 5.0 11.0 0.00 0.00 0.00 44 1007.9
20260902043057 67 141 5.0 9.0 0.00 0.00 0.00 43 1008.0
20260902041605 68 146 5.0 10.0 0.00 0.00 0.00 42 1007.9
20260902034558 68 130 4.0 9.0 0.00 0.00 0.00 41 1008.0
20260902033055 69 139 4.0 11.0 0.00 0.00 0.00 40 1008.2
20260902031558 70 138 5.0 11.0 0.00 0.00 0.00 38 1008.1
20260902030107 71 112 5.0 10.0 0.00 0.00 0.00 36 1008.2
20260902024557 71 124 5.0 12.0 0.00 0.00 0.00 35 1008.0
20260902023116 72 90 2.0 7.0 0.00 0.00 0.00 35 1008.1
20260902021604 73 101 0.0 3.0 0.00 0.00 0.00 34 1008.0
20260902020059 75 153 0.0 3.0 0.00 0.00 0.00 33 1008.0
20260902014600 78 128 1.0 3.0 0.00 0.00 0.00 30 1008.0
20260902013056 80 130 1.0 3.0 0.00 0.00 0.00 28 1007.9
20260902011600 81 0 1.0 7.0 0.00 0.00 0.00 25 1008.0
20260902010118 81 134 3.0 9.0 0.00 0.00 0.00 25 1008.0
20260902004600 81 128 4.0 10.0 0.00 0.00 0.00 24 1008.0
20260902003103 82 144 6.0 11.0 0.00 0.00 0.00 23 1008.1
20260902001558 82 139 8.0 11.0 0.00 0.00 0.00 23 1008.1
20260902000058 82 132 5.0 11.0 0.00 0.00 0.00 24 1008.2
20260901234602 82 134 8.0 13.0 0.00 0.00 0.00 24 1008.3
20260901233105 83 140 6.0 14.0 0.00 0.00 0.00 25 1008.4
20260901231559 83 128 4.0 11.0 0.00 0.00 0.00 24 1008.5
20260901230105 83 134 4.0 11.0 0.00 0.00 0.00 25 1008.7
20260901224602 84 123 4.0 9.0 0.00 0.00 0.00 24 1008.9
20260901223105 83 116 3.0 8.0 0.00 0.00 0.00 24 1008.9
20260901221634 84 125 3.0 7.0 0.00 0.00 0.00 25 1009.0
20260901220112 82 209 6.0 12.0 0.00 0.00 0.00 26 1009.4
20260901214604 80 153 2.0 10.0 0.00 0.00 0.00 28 1009.6
20260901213109 82 216 4.0 10.0 0.00 0.00 0.00 26 1009.7
20260901211557 81 200 2.0 8.0 0.00 0.00 0.00 27 1009.9
20260901210107 81 206 2.0 13.0 0.00 0.00 0.00 26 1010.1
20260901204606 81 188 3.0 10.0 0.00 0.00 0.00 27 1010.1
20260901203106 81 130 3.0 12.0 0.00 0.00 0.00 26 1010.2
20260901201600 78 151 9.0 15.0 0.00 0.00 0.00 28 1010.5
20260901200109 79 149 8.0 18.0 0.00 0.00 0.00 29 1010.6
20260901194606 80 191 8.0 15.0 0.00 0.00 0.00 27 1010.7
20260901193111 78 154 9.0 18.0 0.00 0.00 0.00 29 1010.7
20260901191607 77 136 8.0 17.0 0.00 0.00 0.00 29 1010.9
20260901190127 77 163 8.0 14.0 0.00 0.00 0.00 31 1011.1
20260901184612 76 149 10.0 16.0 0.00 0.00 0.00 32 1011.3
20260901183109 75 130 6.0 16.0 0.00 0.00 0.00 34 1011.5
20260901181557 74 149 9.0 18.0 0.00 0.00 0.00 34 1011.7
20260901174605 73 153 8.0 14.0 0.00 0.00 0.00 37 1012.0
20260901173102 72 140 8.0 16.0 0.00 0.00 0.00 38 1012.1
20260901171608 71 169 10.0 18.0 0.00 0.00 0.00 38 1012.2
20260901170158 70 136 9.0 18.0 0.00 0.00 0.00 41 1012.4
20260901164558 69 150 9.0 20.0 0.00 0.00 0.00 41 1012.4
20260901163103 68 134 9.0 18.0 0.00 0.00 0.00 42 1012.5
20260901161614 67 125 8.0 18.0 0.00 0.00 0.00 44 1012.6